EW7917 Weather Reports


Display with metric or nautical units.
time (UTC)temp
F
wind
direction
speed
MPH
gust
MPH
rain 1hr
in
rain 24hr
in
rain mn
in
humidity
%
barometer
mb
20210621201035 87 0 3.0 9.0 0.00 0.00 0.00 56 999.9
20210621201003 87 360 5.0 10.0 0.00 0.00 0.00 56 1000.0
20210621200048 88 0 3.0 7.0 0.00 0.00 0.00 57 1000.0
20210621200008 87 360 3.0 8.0 0.00 0.00 0.00 59 1000.1
20210621195027 88 0 3.0 7.0 0.00 0.00 0.00 58 1000.3
20210621194023 88 0 3.0 7.0 0.00 0.00 0.00 60 1000.5
20210621194014 87 360 2.0 8.0 0.00 0.00 0.00 60 1000.6
20210621193502 87 360 4.0 8.0 0.00 0.00 0.00 61 1000.7
20210621193038 87 0 3.0 6.0 0.00 0.00 0.00 59 1000.8
20210621192504 86 360 3.0 10.0 0.00 0.00 0.00 59 1000.9
20210621192035 86 0 3.0 13.0 0.00 0.00 0.00 63 1001.1
20210621191516 86 360 4.0 14.0 0.00 0.00 0.00 60 1001.1
20210621191027 86 0 2.0 13.0 0.00 0.00 0.00 63 1001.1
20210621190505 85 360 3.0 6.0 0.00 0.00 0.00 62 1001.3
20210621190028 86 0 2.0 8.0 0.00 0.00 0.00 62 1001.3
20210621185505 86 360 3.0 7.0 0.00 0.00 0.00 61 1001.4
20210621185048 87 0 3.0 8.0 0.00 0.00 0.00 59 1001.4
20210621184503 86 360 3.0 9.0 0.00 0.00 0.00 63 1001.3
20210621184028 87 0 3.0 7.0 0.00 0.00 0.00 60 1001.4
20210621183036 86 0 4.0 7.0 0.00 0.00 0.00 65 1001.5
20210621183012 86 360 4.0 8.0 0.00 0.00 0.00 62 1001.6
20210621182057 87 0 2.0 8.0 0.00 0.00 0.00 62 1001.6
20210621182002 86 360 3.0 8.0 0.00 0.00 0.00 64 1001.7
20210621181058 86 0 3.0 8.0 0.00 0.00 0.00 63 1001.7
20210621181003 85 360 4.0 9.0 0.00 0.00 0.00 62 1001.7
20210621180035 86 0 2.0 8.0 0.00 0.00 0.00 63 1001.8
20210621180018 85 360 2.0 8.0 0.00 0.00 0.00 63 1001.8
20210621175043 85 0 3.0 9.0 0.00 0.00 0.00 64 1001.9
20210621175007 85 360 3.0 9.0 0.00 0.00 0.00 63 1001.9
20210621174035 85 360 3.0 10.0 0.00 0.00 0.00 64 1001.9
20210621174013 85 0 3.0 9.0 0.00 0.00 0.00 62 1001.9
20210621173502 85 360 3.0 8.0 0.00 0.00 0.00 64 1002.0
20210621172939 85 0 3.0 7.0 0.00 0.00 0.00 65 1002.0
20210621172507 84 360 4.0 8.0 0.00 0.00 0.00 64 1002.2
20210621171931 85 0 2.0 7.0 0.00 0.00 0.00 65 1002.2
20210621171503 85 360 3.0 9.0 0.00 0.00 0.00 64 1002.4
20210621170901 85 0 2.0 7.0 0.00 0.00 0.00 64 1002.5
20210621170510 85 360 3.0 6.0 0.00 0.00 0.00 66 1002.6
20210621165917 85 0 2.0 8.0 0.00 0.00 0.00 66 1002.7
20210621165508 84 360 3.0 9.0 0.00 0.00 0.00 66 1002.8
20210621164926 84 0 3.0 8.0 0.00 0.00 0.00 68 1002.6
20210621164521 83 360 5.0 9.0 0.00 0.00 0.00 67 1002.8
20210621163927 84 0 2.0 6.0 0.00 0.00 0.00 66 1003.0
20210621163008 84 360 3.0 7.0 0.00 0.00 0.00 67 1003.2
20210621162909 84 0 2.0 6.0 0.00 0.00 0.00 68 1003.2
20210621162003 83 360 1.0 5.0 0.00 0.00 0.00 71 1003.2
20210621161843 83 0 2.0 4.0 0.00 0.00 0.00 72 1003.2
20210621161002 82 360 2.0 7.0 0.00 0.00 0.00 69 1003.4
20210621160840 83 0 2.0 6.0 0.00 0.00 0.00 69 1003.3
20210621160016 83 360 2.0 7.0 0.00 0.00 0.00 70 1003.4
20210621155856 83 0 2.0 6.0 0.00 0.00 0.00 71 1003.4
20210621155006 83 360 2.0 6.0 0.00 0.00 0.00 69 1003.6
20210621154846 83 0 2.0 6.0 0.00 0.00 0.00 70 1003.6
20210621154006 82 360 2.0 7.0 0.00 0.00 0.00 71 1003.8
20210621153832 83 0 1.0 6.0 0.00 0.00 0.00 70 1003.8
20210621153506 82 360 2.0 6.0 0.00 0.00 0.00 72 1003.9
20210621152850 81 0 1.0 8.0 0.00 0.00 0.00 73 1004.0
20210621152502 81 360 2.0 6.0 0.00 0.00 0.00 72 1004.1
20210621151903 81 0 2.0 8.0 0.00 0.00 0.00 73 1004.3
20210621151512 81 360 4.0 9.0 0.00 0.00 0.00 71 1004.5
20210621150922 82 0 2.0 5.0 0.00 0.00 0.00 73 1004.6
20210621150506 81 360 2.0 6.0 0.00 0.00 0.00 75 1004.6
20210621145930 81 0 1.0 5.0 0.00 0.00 0.00 74 1004.7
20210621145506 80 360 1.0 6.0 0.00 0.00 0.00 75 1004.6
20210621144858 80 0 2.0 5.0 0.00 0.00 0.00 74 1004.7
20210621144531 79 360 2.0 5.0 0.00 0.00 0.00 77 1004.8
20210621143845 79 0 1.0 4.0 0.00 0.00 0.00 81 1004.8
20210621143548 78 360 2.0 6.0 0.00 0.00 0.00 81 1004.8
20210621143222 77 360 3.0 6.0 0.00 0.00 0.00 81 1005.0
20210621142554 77 360 1.0 6.0 0.00 0.00 0.00 81 1005.1
20210621142120 77 360 1.0 6.0 0.00 0.00 0.00 81 1005.2
20210621141601 77 360 1.0 6.0 0.00 0.00 0.00 81 1005.3
20210621141057 76 360 2.0 6.0 0.00 0.00 0.00 80 1005.2
20210621140543 76 360 2.0 5.0 0.00 0.00 0.00 81 1005.2
20210621140153 76 360 0.0 4.0 0.00 0.00 0.00 81 1005.3
20210621135541 76 360 0.0 4.0 0.00 0.00 0.00 81 1005.3
20210621135041 76 360 0.0 7.0 0.00 0.00 0.00 81 1005.3
20210621134629 76 360 3.0 7.0 0.00 0.00 0.00 80 1005.3
20210621134054 76 360 2.0 6.0 0.00 0.00 0.00 80 1005.2
20210621133540 76 360 2.0 5.0 0.00 0.00 0.00 81 1005.2
20210621133058 75 360 1.0 5.0 0.00 0.00 0.00 82 1005.3
20210621132539 75 360 2.0 6.0 0.00 0.00 0.00 82 1005.5
20210621132036 75 360 1.0 6.0 0.00 0.00 0.00 82 1005.6
20210621131547 74 360 1.0 4.0 0.00 0.00 0.00 83 1005.6
20210621131043 74 360 1.0 7.0 0.00 0.00 0.00 84 1005.7
20210621130532 74 360 3.0 7.0 0.00 0.00 0.00 84 1005.7
20210621130033 73 360 1.0 7.0 0.00 0.00 0.00 85 1005.7
20210621125529 73 360 2.0 6.0 0.00 0.00 0.00 85 1005.8
20210621125027 73 360 1.0 3.0 0.00 0.00 0.00 86 1005.9
20210621124603 72 360 1.0 5.0 0.00 0.00 0.00 87 1005.9
20210621124026 72 360 2.0 4.0 0.00 0.00 0.00 87 1005.9
20210621123524 71 360 2.0 4.0 0.00 0.00 0.00 87 1005.9
20210621123028 71 360 0.0 4.0 0.00 0.00 0.00 88 1005.8
20210621122528 71 360 1.0 4.0 0.00 0.00 0.00 88 1005.9
20210621122021 70 360 1.0 4.0 0.00 0.00 0.00 88 1005.9
20210621121557 70 360 1.0 5.0 0.00 0.00 0.00 89 1005.9
20210621121026 70 360 1.0 4.0 0.00 0.00 0.00 89 1005.9
20210621120517 69 360 1.0 5.0 0.00 0.00 0.00 89 1005.8
20210621120039 69 360 1.0 3.0 0.00 0.00 0.00 90 1005.9
20210621115518 68 360 1.0 2.0 0.00 0.00 0.00 90 1005.9
20210621115013 68 360 0.0 2.0 0.00 0.00 0.00 90 1005.9
20210621114614 68 360 1.0 4.0 0.00 0.00 0.00 90 1006.0
20210621114012 68 360 0.0 4.0 0.00 0.00 0.00 90 1005.9
20210621113513 67 360 0.0 1.0 0.00 0.00 0.00 91 1005.9
20210621113027 67 360 0.0 0.0 0.00 0.00 0.00 90 1005.9
20210621112510 67 360 0.0 0.0 0.00 0.00 0.00 90 1005.9
20210621112008 66 360 0.0 0.0 0.00 0.00 0.00 90 1005.9
20210621111513 66 360 0.0 0.0 0.00 0.00 0.00 90 1005.9
20210621111007 66 360 0.0 0.0 0.00 0.00 0.00 90 1005.9
20210621110506 66 360 0.0 0.0 0.00 0.00 0.00 90 1006.0
20210621110005 66 360 0.0 0.0 0.00 0.00 0.00 90 1006.0
20210621105503 65 360 0.0 0.0 0.00 0.00 0.00 90 1006.0
20210621105005 65 360 0.0 0.0 0.00 0.00 0.00 90 1006.0
20210621104503 65 360 0.0 0.0 0.00 0.00 0.00 90 1005.9
20210621104002 65 360 0.0 0.0 0.00 0.00 0.00 89 1006.0
20210621103502 65 360 0.0 0.0 0.00 0.00 0.00 89 1006.0
20210621103002 65 360 0.0 0.0 0.00 0.00 0.00 90 1006.0
20210621102000 64 360 0.0 0.0 0.00 0.00 0.00 89 1005.8
20210621101727 64 360 0.0 0.0 0.00 0.00 0.00 89 1005.9
20210621101100 64 360 0.0 0.0 0.00 0.00 0.00 88 1005.8
20210621100600 64 360 0.0 0.0 0.00 0.00 0.00 88 1005.8
20210621100116 64 360 0.0 0.0 0.00 0.00 0.00 88 1005.9
20210621095609 64 360 0.0 0.0 0.00 0.00 0.00 88 1005.8
20210621095059 64 360 0.0 0.0 0.00 0.00 0.00 87 1005.8
20210621094801 64 360 0.0 0.0 0.00 0.00 0.00 87 1005.8
20210621094137 64 360 0.0 0.0 0.00 0.00 0.00 87 1005.7
20210621093628 63 360 0.0 0.0 0.00 0.00 0.00 87 1005.5
20210621093124 63 360 0.0 0.0 0.00 0.00 0.00 86 1005.6
20210621092611 63 360 0.0 0.0 0.00 0.00 0.00 86 1005.8
20210621092056 63 360 0.0 0.0 0.00 0.00 0.00 85 1005.9
20210621091639 63 360 0.0 0.0 0.00 0.00 0.00 85 1006.0
20210621091055 63 360 0.0 0.0 0.00 0.00 0.00 85 1006.0
20210621090555 63 360 0.0 0.0 0.00 0.00 0.00 85 1006.0
20210621090129 63 360 0.0 0.0 0.00 0.00 0.00 85 1006.1
20210621085554 63 360 0.0 0.0 0.00 0.00 0.00 85 1005.9
20210621085104 63 360 0.0 0.0 0.00 0.00 0.00 85 1005.8
20210621084601 63 360 0.0 0.0 0.00 0.00 0.00 85 1005.9
20210621084053 63 360 0.0 0.0 0.00 0.00 0.00 85 1006.0
20210621083554 63 360 0.0 0.0 0.00 0.00 0.00 85 1005.9
20210621083134 63 360 0.0 0.0 0.00 0.00 0.00 85 1006.0
20210621082554 63 360 0.0 0.0 0.00 0.00 0.00 85 1006.1
20210621082104 63 360 0.0 0.0 0.00 0.00 0.00 85 1006.2
20210621081619 63 360 0.0 0.0 0.00 0.00 0.00 85 1006.3
20210621081052 63 360 0.0 0.0 0.00 0.00 0.00 85 1006.3
20210621080552 63 360 0.0 0.0 0.00 0.00 0.00 85 1006.2
20210621080209 63 360 0.0 0.0 0.00 0.00 0.00 85 1006.3
20210621075551 63 360 0.0 0.0 0.00 0.00 0.00 85 1006.2
20210621075052 63 360 0.0 0.0 0.00 0.00 0.00 85 1006.2
20210621074643 63 360 0.0 0.0 0.00 0.00 0.00 85 1006.2
20210621074050 63 360 0.0 0.0 0.00 0.00 0.00 85 1006.2
20210621073552 63 360 0.0 0.0 0.00 0.00 0.00 85 1006.3
20210621073103 63 360 0.0 0.0 0.00 0.00 0.00 84 1006.2
20210621072549 63 360 0.0 0.0 0.00 0.00 0.00 84 1006.0
20210621072049 63 360 0.0 0.0 0.00 0.00 0.00 84 1006.2
20210621071615 64 360 0.0 0.0 0.00 0.00 0.00 84 1006.1
20210621071051 64 360 0.0 0.0 0.00 0.00 0.00 83 1006.3
20210621070556 64 360 0.0 0.0 0.00 0.00 0.00 83 1006.3
20210621070125 64 360 0.0 0.0 0.00 0.00 0.00 83 1006.5
20210621065545 64 360 0.0 0.0 0.00 0.00 0.00 82 1006.6
20210621064659 64 360 0.0 0.0 0.00 0.00 0.00 82 1006.7
20210621064044 64 360 0.0 0.0 0.00 0.00 0.00 81 1006.7
20210621063608 64 360 0.0 0.0 0.00 0.00 0.00 81 1006.7
20210621063140 64 360 0.0 0.0 0.00 0.00 0.00 81 1006.7
20210621062556 64 360 0.0 0.0 0.00 0.00 0.00 81 1006.6
20210621062043 64 360 0.0 0.0 0.00 0.00 0.00 81 1006.7
20210621061552 64 360 0.0 0.0 0.00 0.00 0.00 81 1006.7
20210621061059 64 360 0.0 0.0 0.00 0.00 0.00 81 1006.7
20210621060542 64 360 0.0 0.0 0.00 0.00 0.00 81 1006.6
20210621060058 63 360 0.0 1.0 0.00 0.00 0.00 81 1006.6
20210621055542 64 360 0.0 1.0 0.00 0.00 0.00 81 1006.6
20210621055042 64 360 0.0 0.0 0.00 0.00 0.00 82 1006.6
20210621054618 64 360 0.0 0.0 0.00 0.00 0.00 81 1006.5
20210621054039 64 360 0.0 0.0 0.00 0.00 0.00 81 1006.6
20210621053538 64 360 0.0 1.0 0.00 0.00 0.00 80 1006.7
20210621053132 64 360 0.0 0.0 0.00 0.00 0.00 80 1006.7
20210621052537 64 360 0.0 0.0 0.00 0.00 0.00 79 1006.6
20210621052037 64 360 0.0 0.0 0.00 0.00 0.00 79 1006.7
20210621051551 64 360 0.0 0.0 0.00 0.00 0.00 79 1006.6
20210621051038 64 360 0.0 0.0 0.00 0.00 0.00 79 1006.6
20210621050535 64 360 0.0 0.0 0.00 0.00 0.00 78 1006.6
20210621050115 64 360 0.0 0.0 0.00 0.00 0.00 78 1006.6
20210621045540 65 360 0.0 0.0 0.00 0.00 0.00 77 1006.7
20210621045036 65 360 0.0 0.0 0.00 0.00 0.00 78 1006.6
20210621044619 65 360 0.0 0.0 0.00 0.00 0.00 77 1006.6
20210621044037 65 360 0.0 0.0 0.00 0.00 0.00 77 1006.6
20210621043533 65 360 0.0 0.0 0.00 0.00 0.00 77 1006.6
20210621043124 65 360 0.0 0.0 0.00 0.00 0.00 77 1006.7
20210621042532 65 360 0.0 0.0 0.00 0.00 0.00 77 1006.6
20210621042031 65 360 0.0 0.0 0.00 0.00 0.00 77 1006.7
20210621041614 65 360 0.0 0.0 0.00 0.00 0.00 76 1006.7
20210621041037 65 360 0.0 0.0 0.00 0.00 0.00 76 1006.6
20210621040530 65 360 0.0 0.0 0.00 0.00 0.00 76 1006.6
20210621040051 65 360 0.0 0.0 0.00 0.00 0.00 76 1006.7
20210621035537 65 360 0.0 0.0 0.00 0.00 0.00 76 1006.8
20210621035044 66 360 0.0 0.0 0.00 0.00 0.00 76 1006.8
20210621034620 66 360 0.0 0.0 0.00 0.00 0.00 76 1006.9
20210621034031 66 360 0.0 0.0 0.00 0.00 0.00 76 1006.8
20210621033527 66 360 0.0 0.0 0.00 0.00 0.00 76 1007.0
20210621033051 66 360 0.0 0.0 0.00 0.00 0.00 76 1007.0
20210621032527 66 360 0.0 0.0 0.00 0.00 0.00 76 1007.0
20210621032027 66 360 0.0 0.0 0.00 0.00 0.00 75 1006.9
20210621031559 66 360 0.0 0.0 0.00 0.00 0.00 75 1007.0
20210621031026 66 360 0.0 0.0 0.00 0.00 0.00 75 1006.9
20210621030527 66 360 0.0 0.0 0.00 0.00 0.00 76 1007.0
20210621030040 66 360 0.0 0.0 0.00 0.00 0.00 76 1006.9
20210621025526 66 360 0.0 0.0 0.00 0.00 0.00 75 1006.9
20210621025046 66 360 0.0 0.0 0.00 0.00 0.00 75 1006.9
20210621024604 66 360 0.0 0.0 0.00 0.00 0.00 74 1007.0
20210621024026 66 360 0.0 0.0 0.00 0.00 0.00 74 1007.1
20210621023526 67 360 0.0 0.0 0.00 0.00 0.00 74 1007.0
20210621023033 67 360 0.0 0.0 0.00 0.00 0.00 73 1007.1
20210621022535 67 360 0.0 0.0 0.00 0.00 0.00 73 1007.1
20210621022025 67 360 0.0 0.0 0.00 0.00 0.00 71 1007.1
20210621021535 67 360 0.0 0.0 0.00 0.00 0.00 70 1007.1
20210621021024 68 360 0.0 0.0 0.00 0.00 0.00 69 1007.0
20210621020541 68 360 0.0 0.0 0.00 0.00 0.00 69 1006.9
20210621020113 68 360 0.0 0.0 0.00 0.00 0.00 69 1006.9
20210621015523 68 360 0.0 0.0 0.00 0.00 0.00 68 1006.9
20210621015036 69 360 0.0 0.0 0.00 0.00 0.00 68 1006.9
20210621014535 69 360 0.0 0.0 0.00 0.00 0.00 69 1006.7
20210621014022 69 360 0.0 0.0 0.00 0.00 0.00 67 1006.7
20210621013522 69 360 0.0 0.0 0.00 0.00 0.00 67 1006.6
20210621013058 69 360 0.0 0.0 0.00 0.00 0.00 67 1006.7
20210621012524 70 360 0.0 0.0 0.00 0.00 0.00 66 1006.6
20210621012024 70 360 0.0 0.0 0.00 0.00 0.00 67 1006.6
20210621011550 70 360 0.0 0.0 0.00 0.00 0.00 66 1006.6
20210621011033 70 360 0.0 0.0 0.00 0.00 0.00 66 1006.6
20210621010529 70 360 0.0 0.0 0.00 0.00 0.00 66 1006.4
20210621010023 71 360 0.0 0.0 0.00 0.00 0.00 66 1006.4
20210621005521 71 360 0.0 0.0 0.00 0.00 0.00 64 1006.4
20210621005024 71 360 0.0 0.0 0.00 0.00 0.00 65 1006.3
20210621004524 72 360 0.0 0.0 0.00 0.00 0.00 65 1006.3
20210621004022 72 360 0.0 0.0 0.00 0.00 0.00 64 1006.2
20210621003521 72 360 0.0 0.0 0.00 0.00 0.00 65 1006.2
20210621003046 73 360 0.0 0.0 0.00 0.00 0.00 65 1006.1
20210621002521 73 360 0.0 0.0 0.00 0.00 0.00 65 1006.1
20210621002021 73 360 0.0 0.0 0.00 0.00 0.00 66 1006.0
20210621001537 74 360 0.0 0.0 0.00 0.00 0.00 65 1006.0
20210621001021 74 360 0.0 0.0 0.00 0.00 0.00 63 1006.0
20210621000521 75 360 0.0 0.0 0.00 0.00 0.00 63 1006.0
20210621000108 75 360 0.0 0.0 0.00 0.00 0.00 63 1006.0
20210620235523 76 360 0.0 0.0 0.00 0.00 0.00 62 1005.9
20210620235019 76 360 0.0 0.0 0.00 0.00 0.00 61 1005.8
20210620234526 77 360 0.0 0.0 0.00 0.00 0.00 61 1005.6
20210620234036 77 360 0.0 0.0 0.00 0.00 0.00 60 1005.5
20210620233520 77 360 0.0 0.0 0.00 0.00 0.00 59 1005.5
20210620233028 77 360 0.0 2.0 0.00 0.00 0.00 59 1005.5
20210620232519 77 360 0.0 2.0 0.00 0.00 0.00 58 1005.6
20210620232018 77 360 0.0 1.0 0.00 0.00 0.00 56 1005.7
20210620231520 78 360 0.0 2.0 0.00 0.00 0.00 55 1005.8
20210620231018 78 360 0.0 2.0 0.00 0.00 0.00 54 1005.9
20210620230518 78 360 0.0 2.0 0.00 0.00 0.00 52 1005.9
20210620230027 78 360 1.0 4.0 0.00 0.00 0.00 50 1005.9
20210620225517 79 360 1.0 3.0 0.00 0.00 0.00 48 1005.8
20210620225017 79 360 0.0 4.0 0.00 0.00 0.00 51 1005.7
20210620224519 79 360 1.0 4.0 0.00 0.00 0.00 48 1005.5
20210620224021 80 360 1.0 3.0 0.00 0.00 0.00 47 1005.6
20210620223517 80 360 1.0 4.0 0.00 0.00 0.00 44 1005.6
20210620223051 80 360 1.0 4.0 0.00 0.00 0.00 44 1005.6
20210620222516 80 360 1.0 4.0 0.00 0.00 0.00 44 1005.6
20210620222016 81 360 0.0 5.0 0.00 0.00 0.00 44 1005.5
20210620221532 81 360 1.0 5.0 0.00 0.00 0.00 41 1005.5
20210620221015 81 360 2.0 5.0 0.00 0.00 0.00 41 1005.4
20210620220515 81 360 2.0 5.0 0.00 0.00 0.00 41 1005.4
20210620220024 82 360 1.0 5.0 0.00 0.00 0.00 43 1005.4
20210620215538 82 360 0.0 4.0 0.00 0.00 0.00 43 1005.4
20210620215014 82 360 1.0 5.0 0.00 0.00 0.00 41 1005.3
20210620214543 83 360 1.0 5.0 0.00 0.00 0.00 41 1005.2
20210620214014 82 360 0.0 4.0 0.00 0.00 0.00 46 1005.2
20210620213513 82 360 0.0 4.0 0.00 0.00 0.00 42 1005.2
20210620213017 82 360 1.0 5.0 0.00 0.00 0.00 41 1005.2
20210620212528 82 360 1.0 5.0 0.00 0.00 0.00 44 1005.2
20210620212033 83 360 1.0 4.0 0.00 0.00 0.00 41 1005.2
20210620211531 83 360 1.0 5.0 0.00 0.00 0.00 40 1005.3
20210620211016 83 360 1.0 5.0 0.00 0.00 0.00 41 1005.3
20210620210511 83 360 1.0 5.0 0.00 0.00 0.00 43 1005.1
20210620210013 83 360 2.0 5.0 0.00 0.00 0.00 42 1005.1
20210620205511 83 360 3.0 6.0 0.00 0.00 0.00 43 1005.2
20210620205014 83 360 2.0 6.0 0.00 0.00 0.00 41 1005.2
20210620204512 84 360 2.0 6.0 0.00 0.00 0.00 39 1005.2
20210620204010 85 360 2.0 5.0 0.00 0.00 0.00 40 1005.1
20210620203509 84 360 0.0 5.0 0.00 0.00 0.00 42 1005.2
20210620203013 84 360 1.0 3.0 0.00 0.00 0.00 41 1005.2
20210620202507 84 360 1.0 5.0 0.00 0.00 0.00 43 1005.3
20210620202007 84 360 1.0 5.0 0.00 0.00 0.00 42 1005.3
20210620201507 83 360 1.0 6.0 0.00 0.00 0.00 42 1005.4